RYR26NK LEZL-LEIB

Flight info

Callsign RYR26NK
Flight time 1h 15m
Altitude 32000
Route BUDIT M445 LASPO Z224 VARUT
Aircraft B738/M-SDE2E3FGHIRWXY/LB1

Departure

Time 2026-05-04 13:28
Airport Seville Airport (LEZL)

Arrival

Time 2026-05-04 14:43
Airport Ibiza Airport (LEIB)
Time Latitude Longitude Altitude Speed Heading
2026-05-04 13:15 37.42154 -5.90028 93 ft 0 kts 314°
2026-05-04 13:20 37.42148 -5.90021 93 ft 4 kts 316°
2026-05-04 13:21 37.42128 -5.89999 121 ft 4 kts 327°
2026-05-04 13:21 37.42104 -5.89984 94 ft 4 kts 349°
2026-05-04 13:21 37.42081 -5.89986 93 ft 3 kts 41°
2026-05-04 13:21 37.42079 -5.89989 93 ft 1 kts 45°
2026-05-04 13:23 37.42081 -5.89979 93 ft 3 kts 77°
2026-05-04 13:23 37.42067 -5.89947 93 ft 5 kts 129°
2026-05-04 13:24 37.42041 -5.89913 94 ft 6 kts 141°
2026-05-04 13:24 37.41997 -5.89871 95 ft 10 kts 126°
2026-05-04 13:24 37.41982 -5.89772 95 ft 14 kts 91°
2026-05-04 13:25 37.41981 -5.89449 97 ft 22 kts 89°
2026-05-04 13:25 37.41983 -5.89244 99 ft 25 kts 90°
2026-05-04 13:25 37.41984 -5.89022 100 ft 26 kts 90°
2026-05-04 13:25 37.41984 -5.88789 102 ft 26 kts 90°
2026-05-04 13:26 37.41984 -5.88565 103 ft 25 kts 90°
2026-05-04 13:26 37.41987 -5.88357 104 ft 23 kts 89°
2026-05-04 13:26 37.41988 -5.88158 105 ft 22 kts 89°
2026-05-04 13:26 37.41987 -5.87961 106 ft 23 kts 90°
2026-05-04 13:27 37.41990 -5.87759 107 ft 23 kts 89°
2026-05-04 13:27 37.41985 -5.87560 109 ft 22 kts 99°
2026-05-04 13:27 37.41893 -5.87423 112 ft 20 kts 175°
2026-05-04 13:27 37.41803 -5.87517 114 ft 18 kts 257°
2026-05-04 13:28 37.41799 -5.87770 111 ft 55 kts 269°
2026-05-04 13:28 37.41797 -5.88538 105 ft 118 kts 270°
2026-05-04 13:28 37.41792 -5.89768 218 ft 155 kts 269°
2026-05-04 13:28 37.41814 -5.91157 749 ft 165 kts 272°
2026-05-04 13:29 37.42109 -5.92548 1373 ft 169 kts 299°
2026-05-04 13:29 37.42921 -5.93698 1805 ft 188 kts 315°
2026-05-04 13:29 37.43942 -5.94870 1996 ft 210 kts 313°
2026-05-04 13:29 37.45069 -5.96164 2227 ft 229 kts 317°
2026-05-04 13:30 37.46337 -5.97525 2580 ft 246 kts 317°
2026-05-04 13:30 37.47624 -5.99001 3271 ft 252 kts 316°
2026-05-04 13:30 37.48914 -6.00507 3990 ft 253 kts 315°
2026-05-04 13:30 37.50196 -6.02026 4787 ft 255 kts 315°
2026-05-04 13:31 37.51483 -6.03569 5551 ft 254 kts 315°
2026-05-04 13:31 37.52773 -6.05106 6315 ft 257 kts 316°
2026-05-04 13:31 37.54071 -6.06662 7057 ft 260 kts 315°
2026-05-04 13:31 37.55500 -6.08102 7636 ft 270 kts 332°
2026-05-04 13:32 37.57357 -6.08615 8286 ft 283 kts 359°
2026-05-04 13:32 37.59267 -6.07932 8974 ft 293 kts 29°
2026-05-04 13:32 37.60719 -6.06093 9644 ft 306 kts 60°
2026-05-04 13:32 37.61431 -6.03542 10299 ft 313 kts 75°
2026-05-04 13:33 37.61986 -6.00787 10528 ft 336 kts 76°
2026-05-04 13:33 37.62537 -5.97862 11023 ft 347 kts 76°
2026-05-04 13:33 37.63097 -5.94884 11753 ft 350 kts 76°
2026-05-04 13:33 37.63671 -5.91879 12468 ft 355 kts 76°
2026-05-04 13:34 37.64262 -5.88838 13224 ft 359 kts 76°
2026-05-04 13:34 37.64868 -5.85764 13953 ft 363 kts 75°
2026-05-04 13:34 37.65487 -5.82649 14604 ft 369 kts 75°
2026-05-04 13:34 37.66121 -5.79476 15209 ft 377 kts 75°
2026-05-04 13:35 37.66768 -5.76245 15865 ft 383 kts 75°
2026-05-04 13:35 37.68092 -5.69632 17162 ft 395 kts 75°
2026-05-04 13:35 37.68772 -5.66231 17726 ft 403 kts 75°
2026-05-04 13:36 37.69461 -5.62778 18374 ft 408 kts 75°
2026-05-04 13:36 37.70158 -5.59278 18966 ft 413 kts 75°
2026-05-04 13:36 37.70861 -5.55744 19560 ft 417 kts 75°
2026-05-04 13:36 37.71571 -5.52172 20152 ft 421 kts 75°
2026-05-04 13:37 37.72283 -5.48586 20726 ft 425 kts 75°
2026-05-04 13:37 37.73002 -5.44953 21276 ft 429 kts 75°
2026-05-04 13:37 37.73727 -5.41274 21833 ft 434 kts 76°
2026-05-04 13:37 37.74212 -5.38816 22210 ft 437 kts 76°
2026-05-04 13:38 37.75198 -5.33804 22966 ft 442 kts 76°
2026-05-04 13:38 37.75941 -5.30020 23478 ft 446 kts 76°
2026-05-04 13:38 37.76681 -5.26247 23920 ft 450 kts 76°
2026-05-04 13:38 37.77436 -5.22389 24371 ft 454 kts 76°
2026-05-04 13:39 37.78194 -5.18509 24847 ft 456 kts 76°
2026-05-04 13:39 37.78957 -5.14598 25292 ft 460 kts 76°
2026-05-04 13:39 37.79723 -5.10659 25724 ft 463 kts 76°
2026-05-04 13:39 37.80494 -5.06691 26149 ft 467 kts 76°
2026-05-04 13:40 37.81269 -5.02691 26577 ft 470 kts 76°
2026-05-04 13:40 37.81793 -4.99985 26861 ft 472 kts 76°
2026-05-04 13:40 37.82577 -4.95929 27278 ft 475 kts 77°
2026-05-04 13:40 37.83364 -4.91850 27656 ft 479 kts 77°
2026-05-04 13:41 37.84156 -4.87739 28030 ft 483 kts 77°
2026-05-04 13:41 37.84904 -4.83596 28482 ft 484 kts 82°
2026-05-04 13:41 37.85325 -4.79391 29057 ft 481 kts 87°
2026-05-04 13:42 37.85754 -4.70975 30137 ft 479 kts 89°
2026-05-04 13:42 37.85934 -4.66767 30512 ft 480 kts 89°
2026-05-04 13:42 37.86135 -4.62551 30922 ft 480 kts 89°
2026-05-04 13:42 37.86358 -4.58342 31357 ft 479 kts 88°
2026-05-04 13:43 37.86598 -4.54142 31788 ft 478 kts 88°
2026-05-04 13:43 37.86845 -4.49992 32013 ft 482 kts 88°
2026-05-04 13:43 37.87106 -4.45634 31980 ft 483 kts 88°
2026-05-04 13:44 37.87501 -4.39097 31965 ft 475 kts 88°
2026-05-04 13:44 37.87851 -4.33205 31974 ft 476 kts 88°
2026-05-04 13:45 37.88034 -4.30083 31978 ft 477 kts 88°
2026-05-04 13:45 37.88179 -4.27584 31976 ft 478 kts 88°
2026-05-04 13:46 37.88411 -4.23576 31976 ft 479 kts 88°
2026-05-04 13:46 37.88650 -4.19420 31974 ft 480 kts 88°
2026-05-04 13:47 37.88909 -4.14879 31972 ft 481 kts 89°
2026-05-04 13:47 37.89280 -4.08325 31962 ft 481 kts 89°
2026-05-04 13:48 37.89359 -4.06922 31960 ft 481 kts 89°
2026-05-04 13:48 37.89374 -4.06653 31960 ft 481 kts 89°
2026-05-04 13:49 37.89460 -4.05135 31964 ft 480 kts 89°
2026-05-04 13:49 37.89555 -4.03444 31965 ft 480 kts 89°
2026-05-04 13:50 37.89664 -4.01499 31963 ft 480 kts 89°
2026-05-04 13:50 37.89692 -4.00991 31964 ft 480 kts 89°
2026-05-04 13:51 37.89818 -3.98728 31965 ft 479 kts 89°
2026-05-04 13:51 37.89967 -3.96059 31960 ft 479 kts 89°
2026-05-04 13:52 37.90188 -3.92052 31961 ft 478 kts 89°
2026-05-04 13:53 37.90311 -3.89810 31963 ft 477 kts 89°
2026-05-04 13:53 37.90367 -3.88773 31964 ft 477 kts 89°
2026-05-04 13:54 37.90737 -3.81988 31954 ft 476 kts 89°
2026-05-04 13:55 37.91409 -3.69471 31961 ft 475 kts 89°
2026-05-04 13:55 37.92072 -3.56945 31972 ft 476 kts 89°
2026-05-04 13:56 37.92518 -3.48564 31973 ft 477 kts 89°
2026-05-04 13:57 37.93180 -3.35967 31960 ft 478 kts 89°
2026-05-04 13:58 37.94037 -3.19199 31967 ft 477 kts 89°
2026-05-04 13:58 37.94664 -3.06614 31967 ft 477 kts 89°
2026-05-04 13:59 37.95073 -2.98244 31974 ft 476 kts 90°
2026-05-04 14:00 37.95569 -2.87900 31974 ft 475 kts 90°
2026-05-04 14:00 37.95963 -2.79607 31970 ft 475 kts 90°
2026-05-04 14:01 37.96334 -2.71637 31980 ft 475 kts 90°
2026-05-04 14:03 37.96596 -2.65982 31951 ft 475 kts 90°
2026-05-04 14:04 37.97272 -2.53469 31962 ft 479 kts 79°
2026-05-04 14:04 37.98386 -2.49504 32012 ft 480 kts 61°
2026-05-04 14:04 38.00312 -2.46072 31987 ft 475 kts 44°
2026-05-04 14:05 38.07184 -2.37112 31963 ft 477 kts 43°
2026-05-04 14:06 38.11783 -2.31039 31970 ft 477 kts 43°
2026-05-04 14:06 38.16347 -2.24899 31957 ft 479 kts 44°
2026-05-04 14:07 38.20921 -2.18724 31968 ft 481 kts 45°
2026-05-04 14:07 38.25142 -2.12131 31959 ft 480 kts 51°
2026-05-04 14:08 38.29175 -2.05391 31962 ft 477 kts 51°
2026-05-04 14:08 38.33234 -1.98742 31968 ft 474 kts 50°
2026-05-04 14:09 38.39342 -1.88826 31931 ft 475 kts 50°
2026-05-04 14:10 38.45434 -1.78898 31936 ft 477 kts 53°
2026-05-04 14:10 38.47150 -1.75271 31943 ft 478 kts 65°
2026-05-04 14:10 38.48366 -1.71326 31936 ft 478 kts 75°
2026-05-04 14:11 38.50244 -1.63196 31933 ft 478 kts 76°
2026-05-04 14:11 38.53034 -1.50957 31913 ft 479 kts 76°
2026-05-04 14:12 38.54940 -1.42807 31937 ft 479 kts 75°
2026-05-04 14:13 38.57814 -1.30571 31948 ft 480 kts 75°
2026-05-04 14:13 38.59726 -1.22394 31936 ft 480 kts 75°
2026-05-04 14:14 38.61631 -1.14213 31914 ft 480 kts 76°
2026-05-04 14:14 38.64473 -1.01943 31933 ft 480 kts 76°
2026-05-04 14:15 38.68241 -0.85581 31931 ft 479 kts 76°
2026-05-04 14:16 38.71046 -0.73326 31927 ft 477 kts 76°
2026-05-04 14:17 38.73826 -0.61109 31963 ft 476 kts 77°
2026-05-04 14:17 38.75649 -0.53072 31618 ft 467 kts 77°
2026-05-04 14:18 38.76546 -0.49108 31349 ft 461 kts 77°
2026-05-04 14:18 38.78317 -0.41251 30641 ft 456 kts 77°
2026-05-04 14:19 38.80063 -0.33476 29941 ft 452 kts 77°
2026-05-04 14:19 38.80923 -0.29616 29538 ft 450 kts 77°
2026-05-04 14:19 38.81787 -0.25778 29142 ft 446 kts 76°
2026-05-04 14:19 38.82643 -0.21979 28782 ft 442 kts 77°
2026-05-04 14:20 38.83483 -0.18206 28411 ft 438 kts 77°
2026-05-04 14:20 38.84314 -0.14462 28050 ft 435 kts 77°
2026-05-04 14:20 38.85139 -0.10740 27670 ft 433 kts 77°
2026-05-04 14:21 38.86771 -0.03363 26951 ft 427 kts 77°
2026-05-04 14:21 38.87579 0.00292 26560 ft 424 kts 77°
2026-05-04 14:21 38.88380 0.03923 26227 ft 421 kts 77°
2026-05-04 14:21 38.89165 0.07484 25907 ft 419 kts 77°
2026-05-04 14:22 38.89954 0.11071 25600 ft 417 kts 77°
2026-05-04 14:22 38.90751 0.14695 25205 ft 416 kts 77°
2026-05-04 14:22 38.91525 0.18227 24813 ft 416 kts 77°
2026-05-04 14:22 38.92307 0.21798 24470 ft 415 kts 77°
2026-05-04 14:23 38.93857 0.28891 23657 ft 415 kts 77°
2026-05-04 14:23 38.94648 0.32536 22476 ft 434 kts 77°
2026-05-04 14:23 38.95470 0.36326 21629 ft 443 kts 77°
2026-05-04 14:24 38.96297 0.40132 21173 ft 440 kts 76°
2026-05-04 14:24 38.97115 0.43896 20628 ft 438 kts 76°
2026-05-04 14:24 38.97938 0.47698 20025 ft 441 kts 76°
2026-05-04 14:24 38.98754 0.51471 19639 ft 437 kts 76°
2026-05-04 14:25 38.99562 0.55217 19270 ft 433 kts 76°
2026-05-04 14:25 39.01150 0.62592 18537 ft 423 kts 76°
2026-05-04 14:25 39.01921 0.66217 18170 ft 418 kts 78°
2026-05-04 14:26 39.02237 0.69864 17733 ft 409 kts 97°
2026-05-04 14:26 39.02030 0.73475 17395 ft 403 kts 98°
2026-05-04 14:26 39.01830 0.77065 17009 ft 402 kts 97°
2026-05-04 14:26 39.01646 0.80646 16650 ft 400 kts 97°
2026-05-04 14:27 39.01532 0.83007 16417 ft 399 kts 97°
2026-05-04 14:27 39.01367 0.86562 16061 ft 397 kts 96°
2026-05-04 14:27 39.01207 0.90101 15711 ft 396 kts 96°
2026-05-04 14:27 39.01049 0.93620 15368 ft 393 kts 96°
2026-05-04 14:28 39.00892 0.97108 15016 ft 388 kts 96°
2026-05-04 14:28 39.00737 1.00549 14669 ft 384 kts 96°
2026-05-04 14:28 39.00581 1.03954 14331 ft 379 kts 96°
2026-05-04 14:28 39.00426 1.07319 13998 ft 375 kts 96°
2026-05-04 14:29 39.00119 1.13936 13286 ft 367 kts 96°
2026-05-04 14:29 39.00204 1.20395 12630 ft 360 kts 79°
2026-05-04 14:30 39.00752 1.23479 12316 ft 357 kts 78°
2026-05-04 14:30 39.01328 1.26568 11988 ft 354 kts 78°
2026-05-04 14:30 39.02424 1.32676 11332 ft 348 kts 79°
2026-05-04 14:31 39.02942 1.35685 11125 ft 340 kts 79°
2026-05-04 14:31 39.03922 1.41483 10833 ft 324 kts 79°
2026-05-04 14:32 39.04836 1.47079 10452 ft 316 kts 81°
2026-05-04 14:32 39.05231 1.49855 10180 ft 314 kts 82°
2026-05-04 14:32 39.05615 1.52619 9907 ft 313 kts 82°
2026-05-04 14:32 39.06003 1.55373 9587 ft 312 kts 82°
2026-05-04 14:33 39.06391 1.58119 9292 ft 312 kts 82°
2026-05-04 14:33 39.06779 1.60855 9000 ft 310 kts 81°
2026-05-04 14:33 39.07387 1.63478 8715 ft 310 kts 66°
2026-05-04 14:33 39.08383 1.65918 8461 ft 307 kts 61°
2026-05-04 14:34 39.09424 1.68312 8181 ft 305 kts 62°
2026-05-04 14:34 39.10450 1.70697 7883 ft 304 kts 62°
2026-05-04 14:34 39.11335 1.73161 7611 ft 300 kts 78°
2026-05-04 14:34 39.11390 1.75763 7465 ft 286 kts 107°
2026-05-04 14:35 39.10618 1.78046 7210 ft 275 kts 130°
2026-05-04 14:35 39.09338 1.79800 6949 ft 264 kts 150°
2026-05-04 14:35 39.07701 1.80661 6658 ft 250 kts 182°
2026-05-04 14:35 39.06088 1.80148 6408 ft 238 kts 217°
2026-05-04 14:36 39.04991 1.78652 6205 ft 232 kts 232°
2026-05-04 14:36 39.04013 1.77001 5919 ft 232 kts 234°
2026-05-04 14:36 39.03114 1.75291 5666 ft 230 kts 238°
2026-05-04 14:36 39.02297 1.73502 5447 ft 228 kts 240°
2026-05-04 14:37 39.01551 1.71755 5210 ft 227 kts 240°
2026-05-04 14:37 39.00810 1.69983 4979 ft 223 kts 241°
2026-05-04 14:37 39.00096 1.68264 4747 ft 215 kts 241°
2026-05-04 14:37 38.99414 1.66618 4668 ft 199 kts 242°
2026-05-04 14:38 38.98781 1.65090 4492 ft 190 kts 241°
2026-05-04 14:38 38.98164 1.63605 4260 ft 188 kts 241°
2026-05-04 14:38 38.97552 1.62130 4016 ft 187 kts 241°
2026-05-04 14:38 38.96939 1.60655 3787 ft 187 kts 241°
2026-05-04 14:39 38.96324 1.59171 3534 ft 189 kts 241°
2026-05-04 14:39 38.95704 1.57675 3287 ft 189 kts 242°
2026-05-04 14:39 38.95091 1.56193 3039 ft 185 kts 241°
2026-05-04 14:40 38.93922 1.53371 2562 ft 175 kts 242°
2026-05-04 14:40 38.93359 1.52010 2331 ft 171 kts 242°
2026-05-04 14:40 38.92802 1.50684 2121 ft 169 kts 241°
2026-05-04 14:40 38.92255 1.49338 1912 ft 172 kts 241°
2026-05-04 14:41 38.91684 1.47987 1676 ft 171 kts 236°
2026-05-04 14:41 38.91181 1.46634 1437 ft 162 kts 244°
2026-05-04 14:41 38.90203 1.44398 1034 ft 133 kts 241°
2026-05-04 14:42 38.89361 1.42323 672 ft 133 kts 238°
2026-05-04 14:42 38.88942 1.41289 499 ft 130 kts 239°
2026-05-04 14:42 38.88519 1.40285 323 ft 129 kts 239°
2026-05-04 14:43 38.88098 1.39265 156 ft 129 kts 239°
2026-05-04 14:43 38.87685 1.38271 28 ft 124 kts 239°
2026-05-04 14:43 38.87328 1.37415 9 ft 84 kts 242°
2026-05-04 14:43 38.87148 1.36983 11 ft 38 kts 244°
2026-05-04 14:44 38.87103 1.36704 7 ft 29 kts 268°
2026-05-04 14:44 38.87131 1.36558 7 ft 14 kts 348°
2026-05-04 14:44 38.87195 1.36643 7 ft 13 kts 64°
2026-05-04 14:44 38.87236 1.36747 8 ft 13 kts 63°
2026-05-04 14:45 38.87280 1.36843 8 ft 13 kts 39°
2026-05-04 14:45 38.87362 1.36822 9 ft 12 kts 334°
2026-05-04 14:45 38.87439 1.36810 7 ft 12 kts 46°
2026-05-04 14:45 38.87480 1.36901 8 ft 12 kts 62°
2026-05-04 14:46 38.87516 1.36991 7 ft 11 kts 61°
2026-05-04 14:46 38.87548 1.37069 7 ft 4 kts 64°
2026-05-04 14:46 38.87569 1.37088 7 ft 4 kts
2026-05-04 14:46 38.87603 1.37070 9 ft 6 kts 330°
2026-05-04 14:47 38.87622 1.37058 7 ft 0 kts 333°